Location: Bergnerzell
(49.1816°N, 10.2565°E)
Time: 01:41:13
(UTC+00:00)

H-2A R/B - Pass Details

Date: 23 May 2024
Orbit: 567 x 637 km, 98.4° (Epoch: 19 June)

Event Time Altitude Azimuth Distance (km) Brightness Sun altitude
Rises 00:31:03 0° 4° (N) 2,954 7.0 -18.2°
Reaches altitude 10° 00:33:37 10° 350° (N) 2,040 5.6 -18.1°
Maximum altitude 00:37:05 23° 299° (WNW) 1,373 3.9 -17.9°
Enters shadow 00:39:21 15° 259° (W) 1,689 4.0 -17.7°
